Location: Gleizolles
(44.4833°N, 6.7667°E)
Time: 08:10:33
(UTC+00:00)

CZ-4C R/B - Pass Details

Date: 09 April 2020
Orbit: 637 x 1365 km, 63.4° (Epoch: 04 June)

Event Time Altitude Azimuth Distance (km) Brightness Sun altitude
Rises 22:38:48 0° 319° (NW) 3,894 6.5 -36.0°
Reaches altitude 10° 22:41:23 10° 314° (NW) 3,031 5.7 -36.2°
Enters shadow 22:46:55 46° 277° (W) 1,611 3.6 -36.4°
